| time (UTC) | temp C | wind direction | speed KPH | gust KPH | rain 1hr cm | rain 24hr cm | rain mn cm | humidity % | barometer mb |
| 20260505100053 | 3 | 84 | 0.0 | 1.6 | 0.00 | 0.08 | 0.00 | 90 | 999.5 |
| 20260505094607 | 3 | 72 | 0.0 | 0.0 | 0.00 | 0.08 | 0.00 | 90 | 999.4 |
| 20260505093056 | 3 | 72 | 0.0 | 0.0 | 0.00 | 0.08 | 0.00 | 90 | 999.1 |
| 20260505091552 | 3 | 72 | 0.0 | 3.2 | 0.00 | 0.08 | 0.00 | 90 | 999.3 |
| 20260505090047 | 3 | 130 | 0.0 | 4.8 | 0.00 | 0.08 | 0.00 | 90 | 999.2 |
| 20260505084551 | 4 | 41 | 0.0 | 0.0 | 0.00 | 0.08 | 0.00 | 90 | 999.9 |
| 20260505083054 | 4 | 40 | 0.0 | 3.2 | 0.00 | 0.08 | 0.00 | 90 | 1000.0 |
| 20260505081539 | 4 | 327 | 0.0 | 1.6 | 0.00 | 0.08 | 0.00 | 90 | 1000.3 |
| 20260505080045 | 4 | 297 | 0.0 | 3.2 | 0.00 | 0.08 | 0.00 | 90 | 1000.2 |
| 20260505074536 | 4 | 32 | 0.0 | 1.6 | 0.00 | 0.08 | 0.00 | 90 | 1000.4 |
| 20260505073038 | 4 | 30 | 0.0 | 9.7 | 0.00 | 0.08 | 0.00 | 90 | 1000.3 |
| 20260505071544 | 5 | 28 | 1.6 | 8.0 | 0.00 | 0.08 | 0.00 | 90 | 1000.4 |
| 20260505070033 | 5 | 342 | 0.0 | 4.8 | 0.00 | 0.08 | 0.00 | 89 | 1000.7 |
| 20260505064534 | 5 | 15 | 1.6 | 4.8 | 0.03 | 0.08 | 0.00 | 89 | 1000.6 |
| 20260505063030 | 5 | 312 | 0.0 | 4.8 | 0.05 | 0.08 | 0.00 | 89 | 1000.8 |
| 20260505061532 | 5 | 51 | 4.8 | 8.0 | 0.05 | 0.08 | 0.00 | 89 | 1000.4 |
| 20260505060034 | 5 | 342 | 0.0 | 6.4 | 0.05 | 0.08 | 0.08 | 89 | 1000.7 |
| 20260505054525 | 5 | 25 | 3.2 | 8.0 | 0.03 | 0.05 | 0.05 | 88 | 1000.9 |
| 20260505053026 | 5 | 7 | 0.0 | 8.0 | 0.00 | 0.03 | 0.03 | 85 | 1001.0 |
| 20260505051522 | 5 | 248 | 0.0 | 4.8 | 0.00 | 0.03 | 0.03 | 83 | 1000.9 |
| 20260505041519 | 5 | 27 | 3.2 | 9.7 | 0.00 | 0.03 | 0.03 | 82 | 999.6 |
| 20260505040018 | 5 | 23 | 3.2 | 11.3 | 0.00 | 0.03 | 0.03 | 83 | 999.4 |
| 20260505034518 | 6 | 356 | 6.4 | 12.9 | 0.00 | 0.03 | 0.03 | 83 | 999.6 |
| 20260505033026 | 6 | 349 | 4.8 | 16.1 | 0.00 | 0.03 | 0.03 | 82 | 999.4 |
| 20260505031517 | 6 | 1 | 9.7 | 16.1 | 0.00 | 0.03 | 0.03 | 81 | 999.2 |
| 20260505030016 | 6 | 341 | 3.2 | 6.4 | 0.00 | 0.03 | 0.03 | 80 | 999.4 |
| 20260505024515 | 6 | 342 | 3.2 | 8.0 | 0.00 | 0.03 | 0.03 | 81 | 999.4 |
| 20260505023015 | 6 | 30 | 0.0 | 6.4 | 0.03 | 0.03 | 0.03 | 80 | 999.3 |
| 20260505021515 | 6 | 16 | 3.2 | 9.7 | 0.03 | 0.03 | 0.03 | 80 | 999.2 |
| 20260505020017 | 6 | 42 | 4.8 | 11.3 | 0.03 | 0.03 | 0.03 | 79 | 999.3 |
| 20260505014518 | 7 | 329 | 3.2 | 17.7 | 0.03 | 0.03 | 0.03 | 75 | 999.1 |
| 20260505013011 | 9 | 27 | 12.9 | 20.9 | 0.00 | 0.00 | 0.00 | 59 | 999.1 |
| 20260505011509 | 10 | 297 | 0.0 | 17.7 | 0.00 | 0.00 | 0.00 | 54 | 998.8 |
| 20260505010009 | 10 | 290 | 6.4 | 17.7 | 0.00 | 0.00 | 0.00 | 51 | 998.3 |
| 20260505004513 | 11 | 11 | 8.0 | 20.9 | 0.00 | 0.00 | 0.00 | 47 | 997.4 |
| 20260505003007 | 11 | 330 | 9.7 | 22.5 | 0.00 | 0.00 | 0.00 | 45 | 997.3 |
| 20260505001507 | 12 | 354 | 8.0 | 17.7 | 0.00 | 0.00 | 0.00 | 42 | 996.8 |
| 20260505000010 | 12 | 2 | 11.3 | 22.5 | 0.00 | 0.00 | 0.00 | 40 | 996.9 |
| 20260504234505 | 13 | 330 | 11.3 | 24.1 | 0.00 | 0.00 | 0.00 | 36 | 996.5 |
| 20260504233005 | 13 | 14 | 9.7 | 17.7 | 0.00 | 0.00 | 0.00 | 37 | 996.9 |
| 20260504231504 | 14 | 313 | 11.3 | 29.0 | 0.00 | 0.00 | 0.00 | 37 | 996.8 |
| 20260504230004 | 14 | 314 | 9.7 | 30.6 | 0.00 | 0.00 | 0.00 | 36 | 996.7 |
| 20260504224502 | 14 | 251 | 3.2 | 16.1 | 0.00 | 0.00 | 0.00 | 36 | 996.7 |
| 20260504223002 | 14 | 179 | 8.0 | 16.1 | 0.00 | 0.00 | 0.00 | 35 | 996.6 |
| 20260504221504 | 15 | 220 | 1.6 | 8.0 | 0.00 | 0.00 | 0.00 | 29 | 996.5 |
| 20260504220107 | 15 | 259 | 4.8 | 14.5 | 0.00 | 0.00 | 0.00 | 32 | 996.6 |
| 20260504214606 | 14 | 235 | 1.6 | 24.1 | 0.00 | 0.00 | 0.00 | 34 | 997.0 |
| 20260504213059 | 15 | 268 | 4.8 | 16.1 | 0.00 | 0.00 | 0.00 | 28 | 996.4 |
| 20260504211559 | 16 | 319 | 6.4 | 19.3 | 0.00 | 0.00 | 0.00 | 27 | 996.2 |
| 20260504210105 | 16 | 300 | 6.4 | 19.3 | 0.00 | 0.00 | 0.00 | 24 | 996.2 |
| 20260504204613 | 17 | 248 | 3.2 | 9.7 | 0.00 | 0.00 | 0.00 | 22 | 996.4 |
| 20260504203124 | 17 | 265 | 3.2 | 12.9 | 0.00 | 0.00 | 0.00 | 23 | 996.6 |
| 20260504201552 | 16 | 237 | 11.3 | 24.1 | 0.00 | 0.00 | 0.00 | 24 | 996.9 |
| 20260504200051 | 16 | 255 | 1.6 | 11.3 | 0.00 | 0.00 | 0.00 | 23 | 997.0 |
| 20260504194550 | 16 | 356 | 3.2 | 9.7 | 0.00 | 0.00 | 0.00 | 25 | 997.0 |
| 20260504193051 | 16 | 266 | 4.8 | 16.1 | 0.00 | 0.00 | 0.00 | 20 | 997.1 |
| 20260504191553 | 17 | 218 | 1.6 | 11.3 | 0.00 | 0.00 | 0.00 | 20 | 997.1 |
| 20260504190052 | 18 | 135 | 8.0 | 16.1 | 0.00 | 0.00 | 0.00 | 20 | 997.1 |
| 20260504184544 | 18 | 59 | 0.0 | 14.5 | 0.00 | 0.00 | 0.00 | 20 | 997.5 |
| 20260504183042 | 17 | 138 | 8.0 | 19.3 | 0.00 | 0.00 | 0.00 | 21 | 997.9 |
| 20260504181540 | 18 | 172 | 8.0 | 19.3 | 0.00 | 0.00 | 0.00 | 22 | 998.0 |
| 20260504180036 | 17 | 206 | 9.7 | 20.9 | 0.00 | 0.00 | 0.00 | 22 | 998.1 |
| 20260504174534 | 17 | 237 | 4.8 | 12.9 | 0.00 | 0.00 | 0.00 | 23 | 998.4 |
| 20260504173030 | 17 | 292 | 4.8 | 14.5 | 0.00 | 0.00 | 0.00 | 27 | 998.8 |
| 20260504171527 | 16 | 219 | 6.4 | 20.9 | 0.00 | 0.00 | 0.00 | 28 | 999.3 |